[[{"header":{"parameterUnit":"m.s-1","parameterCategory":1,"la1":30.2991,"la2":30.254,"lo1":-89.0895,"lo2":-89.0444,"dy":0.0017,"dx":0.0017,"nx":28,"ny":28,"refTime":"2025-01-28T09:00:00:Z","depth":0,"parameterNumber":2,"parameterNumberName":"U-component_of_WINDS"},"data":[0,0,0,0,0,0,0,0,0,0,0,0,0,0,0,0,0,0,0,0,0,0,0,0,0,0,0,0,0,0,0,0,0,0,0,0,0,0,0,0,0,0,0,0,0,0,0,0,0,0,0,0,0,0,0,0,0,0,-0.681,-0.6809,0,-0.671,-0.6709,-0.6708,-0.6616,-0.6615,-0.6614,-0.6613,-0.6509,-0.6507,-0.6506,0,0,0,0,0,0,0,0,0,0,0,0,0,-0.692,-0.6919,-0.681,-0.6809,-0.6807,-0.671,-0.6709,-0.6708,-0.6616,-0.6615,-0.6614,-0.6612,-0.651,-0.6507,-0.6505,0,0,0,0,0,0,0,0,0,0,0,0,0,-0.6852,-0.6918,-0.681,-0.675,-0.6744,-0.6711,-0.6709,-0.6707,-0.6617,-0.6615,-0.6613,-0.6612,-0.651,-0.6508,-0.6505,-0.6522,0,0,-0.6497,-0.6496,0,0,0,0,0,0,0,0,-0.6856,-0.6848,-0.676,-0.6754,-0.6747,-0.6674,-0.671,-0.6645,-0.6617,-0.6665,-0.6613,-0.6611,-0.6565,-0.6558,-0.6543,-0.6517,-0.6513,-0.6497,-0.6495,-0.6494,-0.6493,0,0,0,0,0,0,0,-0.686,-0.6851,-0.677,-0.6759,-0.6751,-0.6728,-0.6716,-0.6697,-0.6625,-0.6661,-0.6654,-0.6643,-0.6561,-0.6545,-0.654,-0.6511,-0.6497,-0.6495,-0.6493,-0.6492,-0.6497,-0.6498,0,0,0,0,0,0,-0.6875,-0.6856,-0.6773,-0.6767,-0.6798,-0.6727,-0.6714,-0.6699,-0.6625,-0.6613,-0.6645,-0.6639,-0.6551,-0.6543,-0.6536,-0.6552,-0.6494,-0.6492,-0.649,-0.6495,-0.6497,-0.6499,0,0,0,0,0,0,-0.6877,-0.6868,-0.6777,-0.681,-0.6796,-0.6727,-0.6711,-0.6698,-0.6682,-0.6614,-0.66,-0.6642,-0.6549,-0.6539,-0.6527,-0.6547,-0.6491,-0.6488,-0.6493,-0.6496,-0.6498,-0.6585,0,0,0,0,0,0,-0.6881,-0.687,-0.6876,-0.6811,-0.6795,-0.6771,-0.6712,-0.6697,-0.6678,-0.667,-0.6607,-0.6595,-0.6547,-0.6531,-0.6524,-0.6543,-0.6486,-0.6491,-0.6494,-0.6497,-0.658,-0.659,-0.6599,0,0,0,0,0,-0.6885,-0.6903,-0.6876,-0.6867,-0.6801,-0.6772,-0.6763,-0.6708,-0.668,-0.6686,-0.6642,-0.6597,-0.6546,-0.6531,-0.6522,-0.654,-0.6489,-0.6493,-0.6497,-0.6576,-0.6588,-0.6598,0,0,0,0,0,0,-0.6971,-0.6893,-0.6863,-0.686,-0.6824,-0.6757,-0.6762,-0.6723,-0.6692,-0.6686,-0.6618,-0.6604,-0.66,-0.6568,-0.6553,-0.6553,-0.6512,-0.6514,-0.6574,-0.6586,-0.6595,-0.6603,-0.6484,0,0,0,0,0,-0.699,-0.6974,-0.6906,-0.6911,-0.6894,-0.6832,-0.6817,-0.6777,-0.6736,-0.672,-0.6675,-0.6637,-0.6612,-0.6597,-0.657,-0.6575,-0.656,-0.6583,-0.6592,-0.66,-0.6603,-0.6605,-0.6614,-0.6511,-0.6511,-0.6511,0,0,-0.7029,-0.6984,-0.6978,-0.6927,-0.6894,-0.6878,-0.6819,-0.6804,-0.6792,-0.6717,-0.6704,-0.667,-0.6622,-0.6619,-0.6615,-0.6592,-0.6628,-0.6605,-0.6612,-0.661,-0.661,-0.6619,-0.6628,-0.6514,-0.6514,-0.6513,0,0,-0.7091,-0.7056,-0.7056,-0.7025,-0.6976,-0.6934,-0.6935,-0.6874,-0.6849,-0.6834,-0.6778,-0.6762,-0.6721,-0.669,-0.6668,-0.6721,-0.668,-0.6714,-0.6764,-0.6766,-0.6774,-0.6781,-0.6801,-0.6809,-0.6717,-0.6717,-0.6717,0,-0.7145,-0.712,-0.7061,-0.7051,-0.703,-0.6963,-0.6964,-0.6935,-0.688,-0.6868,-0.6843,-0.6791,-0.6754,-0.6743,-0.6757,-0.6741,-0.674,-0.6721,-0.6778,-0.6784,-0.6789,-0.6808,-0.6815,-0.6722,-0.6721,-0.6721,-0.6721,0,-0.7189,-0.7172,-0.7179,-0.7129,-0.7109,-0.7104,-0.7044,-0.7031,-0.6994,-0.6956,-0.6942,-0.6896,-0.6859,-0.6853,-0.6816,-0.6838,-0.6826,-0.679,-0.6747,-0.6805,-0.6821,-0.6827,-0.6729,-0.6727,-0.6726,-0.6724,0,0,-0.7302,-0.7221,-0.7224,-0.7202,-0.7143,-0.7129,-0.7122,-0.7087,-0.7078,-0.7042,-0.7034,-0.7001,-0.6969,-0.6945,-0.6904,-0.6906,-0.6952,-0.687,-0.6868,-0.6888,-0.6975,-0.7002,-0.7011,-0.6924,-0.6925,-0.6926,-0.6979,0,-0.7356,-0.7339,-0.7286,-0.7285,-0.727,-0.7207,-0.72,-0.7164,-0.7128,-0.7109,-0.7068,-0.7047,-0.7005,-0.6991,-0.699,-0.6947,-0.6969,-0.6942,-0.6917,-0.6917,-0.6932,-0.7019,-0.7048,-0.71,-0.6985,-0.6986,-0.6986,0,-0.7415,-0.7386,-0.7384,-0.7328,-0.7319,-0.7314,-0.7279,-0.7262,-0.722,-0.7194,-0.7168,-0.7123,-0.7111,-0.7071,-0.7055,-0.7038,-0.7025,-0.7002,-0.7003,-0.6999,-0.6956,-0.7019,-0.7115,-0.7124,-0.6996,-0.6995,-0.6994,0,-0.75,-0.7459,-0.7453,-0.7435,-0.7369,-0.7368,-0.734,-0.7296,-0.7279,-0.7248,-0.7237,-0.7205,-0.7187,-0.7163,-0.7111,-0.7086,-0.7101,-0.7056,-0.7079,-0.7081,-0.7085,-0.7086,-0.7182,-0.7076,-0.7075,-0.7075,-0.7075,0,-0.7566,-0.7567,-0.749,-0.7487,-0.7487,-0.7426,-0.7428,-0.7394,-0.7356,-0.7345,-0.7288,-0.7278,-0.7209,-0.7192,-0.715,-0.7144,-0.7136,-0.7115,-0.7104,-0.712,-0.7123,-0.7111,-0.7106,-0.7077,-0.7077,-0.7076,-0.7076,0,-0.766,-0.7608,-0.7598,-0.7537,-0.7522,-0.7525,-0.7473,-0.7467,-0.7428,-0.7414,-0.7408,-0.7346,-0.7323,-0.7268,-0.723,-0.7202,-0.7207,-0.7186,-0.7222,-0.7215,-0.7242,-0.724,-0.7334,-0.7343,-0.7231,-0.7232,-0.7233,0,-0.7706,-0.7706,-0.7646,-0.7635,-0.761,-0.7592,-0.7575,-0.7516,-0.7501,-0.7454,-0.7454,-0.7426,-0.7401,-0.7367,-0.7319,-0.729,-0.7269,-0.7303,-0.7264,-0.7281,-0.727,-0.7272,-0.7272,-0.7312,-0.7314,-0.7315,-0.7316,0,-0.7793,-0.7768,-0.7746,-0.7715,-0.7697,-0.767,-0.764,-0.7634,-0.7567,-0.7553,-0.7529,-0.751,-0.7472,-0.7446,-0.7409,-0.738,-0.7338,-0.7329,-0.7333,-0.735,-0.7371,-0.7362,-0.7247,-0.7327,-0.7326,-0.7325,-0.7325,-0.7324,-0.7864,-0.7862,-0.782,-0.7798,-0.7769,-0.7743,-0.7735,-0.7696,-0.7675,-0.7641,-0.7607,-0.7587,-0.7545,-0.7493,-0.7467,-0.745,-0.7428,-0.7434,-0.7435,-0.7438,-0.7446,-0.7374,-0.7443,-0.7443,-0.7442,-0.7442,-0.7442,0,-0.795,-0.792,-0.79,-0.7861,-0.7843,-0.7806,-0.777,-0.7759,-0.7742,-0.7708,-0.7685,-0.7658,-0.7633,-0.7583,-0.7554,-0.755,-0.753,-0.7544,-0.7544,-0.7539,-0.7466,-0.7467,-0.7561,-0.7561,-0.7561,-0.7561,-0.7561,-0.7561,-0.7992,-0.7986,-0.7957,-0.7937,-0.7907,-0.7888,-0.7871,-0.7847,-0.7819,-0.7792,-0.7772,-0.774,-0.7699,-0.7667,-0.7642,-0.7628,-0.762,-0.7641,-0.7621,-0.7555,-0.7544,-0.7533,-0.7533,-0.764,-0.764,-0.7695,-0.7695,-0.7696]},{"header":{"parameterUnit":"m.s-1","parameterCategory":1,"la1":30.2991,"la2":30.254,"lo1":-89.0895,"lo2":-89.0444,"dy":0.0017,"dx":0.0017,"nx":28,"ny":28,"refTime":"2025-01-28T09:00:00:Z","depth":0,"parameterNumber":3,"parameterNumberName":"V-component_of_WINDS"},"data":[0,0,0,0,0,0,0,0,0,0,0,0,0,0,0,0,0,0,0,0,0,0,0,0,0,0,0,0,0,0,0,0,0,0,0,0,0,0,0,0,0,0,0,0,0,0,0,0,0,0,0,0,0,0,0,0,0,0,1.0428,1.0427,0,1.0418,1.0417,1.0417,1.044,1.0441,1.0442,1.0443,1.043,1.0429,1.0428,0,0,0,0,0,0,0,0,0,0,0,0,0,1.0464,1.0463,1.0428,1.0427,1.0427,1.0418,1.0417,1.0417,1.044,1.0441,1.0442,1.0443,1.043,1.0429,1.0427,0,0,0,0,0,0,0,0,0,0,0,0,0,1.045,1.0463,1.0428,1.0438,1.0439,1.0418,1.0417,1.0417,1.044,1.0441,1.0442,1.0443,1.043,1.0429,1.0427,1.0395,0,0,1.0422,1.0422,0,0,0,0,0,0,0,0,1.0451,1.0449,1.0436,1.0437,1.0438,1.0432,1.0426,1.041,1.044,1.0439,1.0443,1.0444,1.0429,1.0428,1.0423,1.0395,1.0394,1.0422,1.0421,1.0421,1.042,0,0,0,0,0,0,0,1.0452,1.0449,1.0424,1.0436,1.0437,1.0442,1.0441,1.0423,1.0428,1.044,1.0441,1.044,1.043,1.0425,1.0423,1.0394,1.0422,1.0421,1.042,1.0419,1.0338,1.0337,0,0,0,0,0,0,1.0452,1.045,1.0424,1.0423,1.0447,1.044,1.044,1.0432,1.0428,1.0429,1.0439,1.0441,1.0427,1.0425,1.0423,1.0385,1.0421,1.0419,1.0418,1.0339,1.0338,1.0336,0,0,0,0,0,0,1.0453,1.0449,1.0424,1.0437,1.0434,1.0439,1.043,1.0432,1.0427,1.0428,1.0429,1.0433,1.0428,1.0425,1.0402,1.0385,1.0419,1.0417,1.0341,1.0339,1.0337,1.0308,0,0,0,0,0,0,1.0454,1.045,1.0438,1.0437,1.0434,1.0404,1.0429,1.0431,1.0424,1.0427,1.0423,1.0423,1.0428,1.0404,1.04,1.0383,1.0416,1.0342,1.034,1.0338,1.0311,1.0306,1.0302,0,0,0,0,0,1.0455,1.043,1.0437,1.0434,1.0419,1.0403,1.0401,1.0409,1.0423,1.0411,1.0412,1.0423,1.0387,1.0402,1.0398,1.0379,1.0343,1.034,1.0338,1.0313,1.0307,1.0302,0,0,0,0,0,0,1.0428,1.043,1.0438,1.0412,1.0408,1.0407,1.0393,1.0402,1.0393,1.0396,1.0405,1.0403,1.0378,1.0377,1.0393,1.0348,1.0367,1.0364,1.035,1.0344,1.034,1.034,1.0415,0,0,0,0,0,1.0419,1.0407,1.0409,1.0386,1.0383,1.0388,1.0381,1.0388,1.0383,1.0381,1.038,1.0374,1.0361,1.0353,1.0341,1.0311,1.031,1.0296,1.0292,1.0288,1.0284,1.0268,1.0261,1.0327,1.0327,1.0327,0,0,1.0401,1.04,1.0392,1.038,1.0378,1.0364,1.0386,1.0371,1.036,1.0378,1.0357,1.0356,1.0349,1.0323,1.0311,1.032,1.0266,1.0284,1.0281,1.028,1.0264,1.0258,1.0252,1.0325,1.0326,1.0326,0,0,1.036,1.0358,1.0339,1.0336,1.0331,1.0335,1.033,1.0329,1.0329,1.0308,1.0321,1.0308,1.0286,1.0281,1.0276,1.0233,1.0243,1.0229,1.0204,1.0188,1.0182,1.0178,1.0162,1.0156,1.0226,1.0226,1.0225,0,1.0337,1.0317,1.0327,1.0311,1.0305,1.0322,1.0302,1.0298,1.0289,1.0285,1.0296,1.0269,1.0266,1.0238,1.0228,1.0223,1.0217,1.0229,1.0183,1.0178,1.0174,1.0159,1.0153,1.0224,1.0224,1.0224,1.0224,0,1.0289,1.0275,1.026,1.0253,1.0245,1.0227,1.0233,1.0224,1.0231,1.0233,1.0211,1.0208,1.0196,1.019,1.0197,1.0163,1.0169,1.0181,1.0201,1.0166,1.0152,1.0146,1.0221,1.0222,1.0223,1.0223,0,0,1.0231,1.0229,1.0223,1.022,1.0217,1.0206,1.0188,1.0177,1.0169,1.0163,1.0147,1.0129,1.014,1.0134,1.014,1.0126,1.0091,1.014,1.0139,1.013,1.0053,1.0043,1.0037,1.0098,1.0097,1.0096,1.0053,0,1.019,1.016,1.0168,1.0138,1.0125,1.0141,1.0125,1.0121,1.0122,1.0111,1.0112,1.0099,1.0115,1.0111,1.0098,1.0098,1.0076,1.0101,1.0083,1.0082,1.0083,1.003,1.0019,0.9979,1.0048,1.0047,1.0046,0,1.0138,1.0131,1.0099,1.0098,1.0093,1.0079,1.0069,1.0059,1.0054,1.0056,1.0049,1.0058,1.0039,1.0059,1.0033,1.0051,1.0044,1.0043,1.0041,1.0039,1.0062,1.0025,0.9967,0.996,1.0038,1.0039,1.0039,0,1.0098,1.008,1.0059,1.0056,1.0054,1.0043,1.0042,1.0038,1.0031,1.0023,1.0018,1.0007,1.0001,0.9992,0.9997,1.0011,0.997,0.9991,0.997,0.997,0.996,0.996,0.9899,0.9957,0.9957,0.9957,0.9957,0,1.0051,1.0031,1.0041,1.0028,1.0006,1.0015,0.9993,0.9993,0.9989,0.9976,0.9989,0.9976,0.9984,0.9971,0.9975,0.9952,0.995,0.995,0.9951,0.9948,0.9948,0.9943,0.9946,0.9955,0.9956,0.9956,0.9956,0,1.0002,1.0008,0.9986,0.9986,0.9985,0.9969,0.9969,0.9956,0.9959,0.9941,0.9938,0.9942,0.9927,0.9932,0.9916,0.9919,0.989,0.9895,0.9892,0.9893,0.9872,0.9873,0.9804,0.9795,0.9859,0.9859,0.9858,0,0.9971,0.9956,0.9955,0.9947,0.9945,0.9933,0.9926,0.9934,0.9927,0.992,0.9908,0.9895,0.9885,0.9861,0.9862,0.985,0.9854,0.9831,0.9852,0.985,0.9853,0.9854,0.9852,0.9826,0.9825,0.9825,0.9824,0,0.9916,0.992,0.991,0.9901,0.9892,0.9885,0.9879,0.9872,0.988,0.9871,0.9857,0.9849,0.9833,0.982,0.9809,0.9807,0.9816,0.9818,0.9812,0.9809,0.9807,0.9807,0.9879,0.9819,0.9819,0.982,0.982,0.982,0.9875,0.9862,0.9859,0.9848,0.9844,0.9838,0.9827,0.9828,0.9817,0.9806,0.9811,0.9795,0.979,0.9776,0.9772,0.9759,0.9768,0.976,0.9758,0.9756,0.9753,0.981,0.9757,0.9757,0.9757,0.9757,0.9758,0,0.982,0.9819,0.9808,0.98,0.979,0.9802,0.9796,0.9787,0.9772,0.9767,0.9758,0.9741,0.9728,0.9728,0.9716,0.9705,0.9709,0.9701,0.9702,0.9701,0.9746,0.9751,0.9698,0.9698,0.9698,0.9698,0.9698,0.9698,0.979,0.9769,0.9773,0.975,0.9749,0.9734,0.9729,0.9724,0.972,0.9701,0.9691,0.9691,0.9688,0.9675,0.9664,0.9664,0.9658,0.9649,0.965,0.9692,0.9698,0.9704,0.9709,0.9648,0.9648,0.9607,0.9607,0.9606]}]]